Location: Castifao
(42.5040°N, 9.1124°E)
Time: 01:11:03
(UTC+00:00)

NOAA 12 - Pass Details

Date: 23 January 2020
Orbit: 796 x 814 km, 98.5° (Epoch: 19 February)

Event Time Altitude Azimuth Distance (km) Brightness Sun altitude
Rises 17:07:54 0° 165° (SSE) 3,285 7.3 -8.2°
Reaches altitude 10° 17:10:13 10° 166° (SSE) 2,359 6.6 -8.6°
Maximum altitude 17:15:26 87° 254° (WSW) 804 4.1 -9.5°
Drops below altitude 10° 17:20:43 10° 346° (NNW) 2,380 6.5 -10.4°
Sets 17:23:03 0° 347° (NNW) 3,316 7.3 -10.8°
